[[{"header":{"parameterUnit":"m.s-1","parameterCategory":1,"la1":30.2991,"la2":30.254,"lo1":-89.0895,"lo2":-89.0444,"dy":0.0017,"dx":0.0017,"nx":28,"ny":28,"refTime":"2023-09-16T09:00:00:Z","depth":0,"parameterNumber":2,"parameterNumberName":"U-component_of_WINDS"},"data":[0,0,0,0,0,0,0,0,0,0,0,0,0,0,0,0,0,0,0,0,0,0,0,0,0,0,0,0,0,0,0,0,0,0,0,0,0,0,0,0,0,0,0,0,0,0,0,0,0,0,0,0,0,0,0,0,0,0,2.1611,2.1612,0,2.1713,2.1714,2.1716,2.1701,2.17,2.1698,2.1696,2.1805,2.1809,2.1814,0,0,0,0,0,0,0,0,0,0,0,0,0,2.1404,2.1408,2.1611,2.1612,2.1613,2.1713,2.1714,2.1716,2.1702,2.17,2.1698,2.1696,2.1803,2.1809,2.1814,0,0,0,0,0,0,0,0,0,0,0,0,0,2.1499,2.141,2.161,2.1618,2.162,2.1713,2.1715,2.1716,2.1702,2.17,2.1697,2.1695,2.1802,2.1808,2.1815,2.1908,0,0,2.1835,2.1838,0,0,0,0,0,0,0,0,2.1494,2.1507,2.1616,2.1618,2.162,2.1692,2.1682,2.1781,2.1703,2.1671,2.1696,2.1693,2.177,2.1779,2.1804,2.1913,2.1917,2.1836,2.184,2.1843,2.1845,0,0,0,0,0,0,0,2.1487,2.1502,2.1651,2.1617,2.162,2.1617,2.1628,2.17,2.1734,2.1674,2.1673,2.1685,2.177,2.1797,2.1806,2.1919,2.1836,2.1842,2.1846,2.1849,2.2107,2.211,0,0,0,0,0,0,2.1478,2.1497,2.1648,2.1654,2.1549,2.1623,2.1635,2.1671,2.1733,2.174,2.1687,2.1684,2.1787,2.1798,2.181,2.1921,2.1843,2.1849,2.1853,2.2105,2.2108,2.2111,0,0,0,0,0,0,2.1474,2.1492,2.1644,2.1576,2.1595,2.1629,2.167,2.1675,2.1702,2.1743,2.1749,2.1708,2.1786,2.1801,2.1883,2.1924,2.1852,2.1858,2.2101,2.2106,2.211,2.2144,0,0,0,0,0,0,2.1468,2.1491,2.1526,2.1576,2.1598,2.1714,2.1673,2.1679,2.1713,2.171,2.1764,2.1771,2.1785,2.1873,2.1889,2.1932,2.1864,2.2098,2.2103,2.2108,2.214,2.2149,2.2158,0,0,0,0,0,2.1461,2.1533,2.1528,2.1546,2.1643,2.1717,2.1729,2.1743,2.1716,2.1752,2.1778,2.1769,2.1918,2.1881,2.19,2.1946,2.2095,2.2102,2.2108,2.2136,2.2147,2.2157,0,0,0,0,0,0,2.1488,2.154,2.1534,2.1625,2.1666,2.1714,2.176,2.1755,2.1806,2.1801,2.1816,2.1829,2.1911,2.1937,2.1896,2.2038,2.2003,2.2013,2.2017,2.2029,2.2038,2.2029,2.1869,0,0,0,0,0,2.1504,2.1559,2.1602,2.1677,2.1698,2.1725,2.1758,2.1764,2.1809,2.1826,2.1859,2.1903,2.1959,2.1996,2.205,2.2144,2.2155,2.2184,2.2193,2.22,2.2209,2.2258,2.2271,2.2132,2.2132,2.2132,0,0,2.1538,2.1573,2.1607,2.1683,2.1716,2.1773,2.174,2.1802,2.1844,2.1836,2.1915,2.194,2.199,2.2078,2.2118,2.2102,2.225,2.2209,2.2214,2.2219,2.2266,2.2279,2.2291,2.2136,2.2136,2.2135,0,0,2.1629,2.1662,2.1727,2.176,2.181,2.1828,2.1843,2.1892,2.1908,2.1987,2.1981,2.2032,2.2129,2.2164,2.2195,2.2298,2.2291,2.2316,2.2362,2.241,2.2421,2.2431,2.2465,2.2478,2.2324,2.2324,2.2324,0,2.1666,2.175,2.1762,2.1823,2.1856,2.185,2.1916,2.1949,2.2014,2.2037,2.2018,2.2138,2.2172,2.2266,2.2291,2.2317,2.2335,2.2309,2.2418,2.2428,2.2437,2.2471,2.2484,2.2327,2.2327,2.2326,2.2326,0,2.1792,2.185,2.1897,2.1958,2.1997,2.2061,2.2082,2.212,2.2123,2.2142,2.2222,2.2262,2.2323,2.2347,2.2351,2.2442,2.243,2.2415,2.2379,2.2453,2.2484,2.2497,2.233,2.2329,2.2329,2.2328,0,0,2.1902,2.1968,2.1985,2.2011,2.2065,2.2111,2.2174,2.2232,2.2264,2.2309,2.2362,2.2444,2.2429,2.2464,2.2472,2.2514,2.2591,2.2494,2.2495,2.2508,2.2691,2.2701,2.2715,2.2587,2.259,2.2592,2.2686,0,2.1997,2.2107,2.2119,2.2217,2.227,2.2265,2.232,2.2359,2.2379,2.2428,2.245,2.2507,2.2484,2.2505,2.2547,2.2572,2.2627,2.2566,2.2636,2.2638,2.2621,2.2732,2.2743,2.283,2.2699,2.2701,2.2702,0,2.2122,2.2168,2.2271,2.2316,2.2339,2.2388,2.2441,2.2488,2.2532,2.2543,2.2581,2.2584,2.2649,2.2612,2.2702,2.266,2.2689,2.2706,2.271,2.2716,2.2673,2.2739,2.2859,2.2871,2.2722,2.2721,2.2719,0,2.2189,2.2278,2.2351,2.2374,2.2428,2.2463,2.2487,2.2528,2.2562,2.2609,2.2631,2.2686,2.2716,2.2759,2.2776,2.2748,2.2864,2.2829,2.2875,2.2874,2.2898,2.2896,2.3022,2.292,2.292,2.292,2.292,0,2.2293,2.2356,2.2381,2.2426,2.2496,2.2509,2.2578,2.2601,2.2638,2.2687,2.2687,2.2733,2.2754,2.2803,2.2818,2.2888,2.2903,2.2913,2.2916,2.2912,2.2911,2.2931,2.2924,2.2923,2.2923,2.2922,2.2921,0,2.238,2.24,2.2478,2.2522,2.2535,2.2584,2.2622,2.2665,2.2684,2.2746,2.2761,2.2792,2.2849,2.2871,2.2943,2.2952,2.3034,2.3032,2.3018,2.3018,2.3062,2.3056,2.3204,2.3223,2.311,2.3111,2.3112,0,2.2443,2.2491,2.254,2.2571,2.2596,2.2648,2.2682,2.2697,2.2732,2.2785,2.2821,2.2879,2.2925,2.3018,2.3047,2.3101,2.31,2.3148,2.3108,2.3102,2.3099,2.3095,2.3099,2.3155,2.3156,2.3157,2.3158,0,2.2554,2.2561,2.2608,2.2659,2.2699,2.274,2.278,2.2807,2.2828,2.2867,2.2925,2.2961,2.3033,2.3089,2.3145,2.3171,2.3168,2.317,2.3183,2.3179,2.3168,2.3172,2.3036,2.3166,2.3166,2.3165,2.3164,2.3164,2.263,2.2671,2.2711,2.2763,2.2795,2.2832,2.2873,2.2897,2.2945,2.3003,2.3009,2.3072,2.3114,2.3187,2.3215,2.3265,2.3252,2.3271,2.3276,2.328,2.3282,2.3161,2.3275,2.3275,2.3275,2.3275,2.3274,0,2.2738,2.2763,2.2811,2.2866,2.2907,2.29,2.2943,2.2978,2.3032,2.3071,2.3116,2.3182,2.3237,2.3269,2.3324,2.3357,2.3357,2.3371,2.3368,2.3373,2.3291,2.3273,2.337,2.337,2.337,2.337,2.337,2.337,2.2799,2.2868,2.2879,2.2963,2.2988,2.3047,2.3073,2.3107,2.3137,2.321,2.3255,2.3275,2.3311,2.3368,2.3418,2.3426,2.3445,2.346,2.3467,2.3389,2.3379,2.337,2.3353,2.3464,2.3465,2.3544,2.3545,2.3546]},{"header":{"parameterUnit":"m.s-1","parameterCategory":1,"la1":30.2991,"la2":30.254,"lo1":-89.0895,"lo2":-89.0444,"dy":0.0017,"dx":0.0017,"nx":28,"ny":28,"refTime":"2023-09-16T09:00:00:Z","depth":0,"parameterNumber":3,"parameterNumberName":"V-component_of_WINDS"},"data":[0,0,0,0,0,0,0,0,0,0,0,0,0,0,0,0,0,0,0,0,0,0,0,0,0,0,0,0,0,0,0,0,0,0,0,0,0,0,0,0,0,0,0,0,0,0,0,0,0,0,0,0,0,0,0,0,0,0,0.6859,0.6861,0,0.7086,0.7088,0.7091,0.715,0.7149,0.7147,0.7146,0.7384,0.7391,0.7399,0,0,0,0,0,0,0,0,0,0,0,0,0,0.648,0.6487,0.6858,0.6861,0.6864,0.7085,0.7088,0.7091,0.715,0.7149,0.7147,0.7145,0.7381,0.739,0.74,0,0,0,0,0,0,0,0,0,0,0,0,0,0.667,0.6489,0.6858,0.692,0.6928,0.7085,0.7088,0.7092,0.7151,0.7149,0.7147,0.7145,0.7378,0.739,0.7401,0.7514,0,0,0.7436,0.7441,0,0,0,0,0,0,0,0,0.6659,0.6684,0.6908,0.6916,0.6925,0.7087,0.7042,0.7234,0.7151,0.7066,0.7146,0.7144,0.7287,0.7306,0.7353,0.7525,0.7535,0.7437,0.7444,0.7449,0.7452,0,0,0,0,0,0,0,0.6646,0.6674,0.6949,0.6911,0.6922,0.6938,0.6963,0.7079,0.7186,0.7074,0.7078,0.7104,0.7292,0.7342,0.736,0.7539,0.7437,0.7447,0.7454,0.7458,0.7813,0.7815,0,0,0,0,0,0,0.6621,0.6663,0.6941,0.6955,0.6784,0.6946,0.6974,0.7037,0.7185,0.7205,0.7106,0.7106,0.7324,0.7346,0.7368,0.751,0.7449,0.7459,0.7466,0.7811,0.7814,0.7816,0,0,0,0,0,0,0.6613,0.6645,0.6932,0.6811,0.6848,0.6955,0.7026,0.7043,0.7094,0.7209,0.7229,0.7138,0.7323,0.7352,0.7477,0.7519,0.7465,0.7475,0.7807,0.7811,0.7815,0.7794,0,0,0,0,0,0,0.6602,0.6642,0.6685,0.6811,0.6854,0.7036,0.7029,0.7049,0.7113,0.7115,0.7244,0.7264,0.7324,0.7459,0.7488,0.7534,0.7484,0.7804,0.7809,0.7814,0.7792,0.7797,0.7801,0,0,0,0,0,0.6588,0.6672,0.6687,0.672,0.691,0.7038,0.7063,0.7129,0.7116,0.7161,0.7234,0.726,0.7509,0.7471,0.7504,0.7554,0.7802,0.7808,0.7813,0.7789,0.7796,0.7801,0,0,0,0,0,0,0.6551,0.669,0.6708,0.6835,0.6924,0.7048,0.7107,0.7133,0.723,0.7228,0.7307,0.7336,0.7455,0.7517,0.7472,0.7671,0.7656,0.7668,0.7626,0.7633,0.7638,0.7621,0.7493,0,0,0,0,0,0.6557,0.6647,0.6764,0.6865,0.6908,0.6999,0.7057,0.71,0.7196,0.7235,0.7318,0.7412,0.7511,0.7575,0.7673,0.78,0.7829,0.785,0.7855,0.7858,0.7869,0.794,0.7951,0.7835,0.7835,0.7835,0,0,0.6572,0.6658,0.6711,0.6859,0.6933,0.7027,0.7031,0.713,0.72,0.7251,0.7373,0.7436,0.7546,0.7672,0.7732,0.7728,0.7907,0.7866,0.7867,0.7877,0.7947,0.7958,0.7968,0.7839,0.7838,0.7838,0,0,0.6646,0.672,0.6812,0.6885,0.6996,0.7056,0.7077,0.7197,0.7241,0.7364,0.7403,0.7488,0.7658,0.7735,0.7796,0.7896,0.7923,0.7925,0.7952,0.802,0.8029,0.8038,0.8074,0.8086,0.7935,0.7935,0.7935,0,0.6651,0.6792,0.6856,0.6952,0.7017,0.7063,0.7157,0.7226,0.7364,0.7408,0.74,0.7613,0.7691,0.7835,0.7858,0.7906,0.7934,0.7912,0.8022,0.8031,0.8041,0.8076,0.8089,0.7935,0.7935,0.7935,0.7935,0,0.6792,0.6889,0.695,0.7079,0.715,0.7245,0.7325,0.7389,0.7424,0.7484,0.7609,0.7703,0.782,0.7857,0.7894,0.8006,0.8,0.8006,0.7993,0.805,0.8085,0.8099,0.7934,0.7935,0.7935,0.7935,0,0,0.6853,0.7014,0.7036,0.7095,0.7219,0.7296,0.7392,0.7505,0.7559,0.7651,0.7735,0.7876,0.7882,0.7951,0.7996,0.8056,0.8129,0.8055,0.8059,0.8066,0.8259,0.8255,0.827,0.8147,0.8149,0.8152,0.825,0,0.6944,0.7116,0.7176,0.7319,0.741,0.7454,0.7538,0.7624,0.7682,0.7768,0.7834,0.7932,0.7932,0.7974,0.8035,0.8107,0.8169,0.8101,0.8227,0.823,0.8199,0.8288,0.8284,0.8373,0.8264,0.8267,0.8268,0,0.7074,0.7165,0.7317,0.7428,0.7469,0.7543,0.765,0.7732,0.783,0.7868,0.7943,0.7984,0.8087,0.8065,0.8209,0.8161,0.8216,0.8259,0.8264,0.828,0.8254,0.8307,0.8403,0.8416,0.829,0.8289,0.8287,0,0.7103,0.7265,0.7377,0.7425,0.7558,0.761,0.7668,0.7764,0.7827,0.7921,0.7963,0.8068,0.8126,0.8207,0.8274,0.8252,0.8412,0.8396,0.8448,0.8446,0.8482,0.8479,0.8589,0.8514,0.8514,0.8513,0.8513,0,0.72,0.7291,0.7391,0.746,0.7564,0.7631,0.7732,0.7793,0.7877,0.796,0.8004,0.8081,0.8164,0.8252,0.8305,0.8416,0.8442,0.8477,0.849,0.8474,0.8469,0.8512,0.8508,0.8517,0.8516,0.8516,0.8515,0,0.7252,0.7323,0.7447,0.7561,0.7592,0.7663,0.7762,0.7831,0.789,0.7993,0.8021,0.8114,0.8219,0.8293,0.8429,0.8465,0.8585,0.8597,0.8551,0.8558,0.8606,0.8601,0.8749,0.8772,0.8679,0.868,0.8681,0,0.731,0.7381,0.7501,0.7558,0.7616,0.7707,0.7771,0.784,0.7905,0.8021,0.8076,0.8183,0.8273,0.8438,0.8519,0.8622,0.8638,0.8683,0.8655,0.8635,0.8641,0.8636,0.8644,0.8688,0.8688,0.8689,0.8689,0,0.7405,0.7436,0.7525,0.7627,0.7701,0.7785,0.7869,0.7914,0.7998,0.8068,0.8175,0.8244,0.8381,0.8487,0.8598,0.8659,0.8689,0.8697,0.8715,0.87,0.867,0.8688,0.8564,0.8694,0.8694,0.8693,0.8693,0.8693,0.7463,0.7528,0.7622,0.772,0.779,0.7867,0.7937,0.8003,0.8092,0.8208,0.8243,0.8354,0.8449,0.86,0.8662,0.875,0.8748,0.8774,0.8781,0.8786,0.8786,0.8654,0.8771,0.8771,0.8771,0.8771,0.8771,0,0.7562,0.7624,0.7713,0.7828,0.7905,0.7923,0.8016,0.808,0.8176,0.8262,0.8348,0.847,0.8572,0.8659,0.8765,0.8819,0.8835,0.8845,0.8843,0.8856,0.8781,0.8756,0.883,0.883,0.883,0.883,0.883,0.883,0.7622,0.7732,0.7773,0.7919,0.7981,0.8088,0.814,0.8211,0.8279,0.8413,0.8497,0.8552,0.8639,0.8751,0.8846,0.8869,0.8906,0.8913,0.8939,0.8868,0.8861,0.8855,0.8832,0.892,0.892,0.9007,0.9008,0.9008]}]]